Volver al catálogo

QIANFAN-141

ActivoComunicacionesPO
NORAD 69087·PAYLOAD·🇨🇳 China

Lanzado May 12, 2026 desde Taiyuan Satellite Launch Center

Loading…

Próximos Pases (próximas 24 horas)

TLE

ActualizadoSource: Space-Track

Época: Sep 14, 2026, 21:11 UTC

1 69087U 26104Q   26257.88296940  .00000024  00000-0  18719-4 0  9997
2 69087  88.9904 332.2882 0002239 113.7073 246.4314 13.51019928 17287

Sigue QIANFAN-141 en tiempo real con AllMySat

Download on the App Store